Station History

Weather Underground - logo

Station Historical Data
Daily Summary for Nil La, TWC- Units:  Metric    English   Both
« Previous Day
Next Day »
Daily Weekly Monthly Yearly Custom
  High: Low: Average:
Temperature: 33.2 °C 17.3 °C 23 °C
Dew Point: 20.1 °C 14.2 °C 16.3 °C
Humidity: 84 % 40 % 68 %
Wind Speed: 7.4 km/h 0 km/h 1.4 km/h
Wind Gust: 3.2 km/h - -
Wind:- - SSE
Pressure: 1012.8 hPa 1011.1 hPa -
Precipitation: 0 mm    
Historical Graphs
 
 
Tabular Data for Nil La, TWC-
Time Temperature Dew Point Pressure Wind Wind Speed Wind Gust Humidity Rainfall Rate (Hourly)
00:04 21.8 °C 16.3 °C 1011.7 hPa Calm     71 % 0 mm
00:09 21.8 °C 16.3 °C 1011.7 hPa Calm     71 % 0 mm
00:14 21.7 °C 16.2 °C 1011.7 hPa Calm     71 % 0 mm
00:19 21.7 °C 16.2 °C 1011.7 hPa Calm     71 % 0 mm
00:24 21.7 °C 16.6 °C 1011.7 hPa Calm     73 % 0 mm
00:29 21.5 °C 16.9 °C 1011.7 hPa Calm     75 % 0 mm
00:34 21.4 °C 17 °C 1011.7 hPa Calm     76 % 0 mm
00:39 21.2 °C 17 °C 1011.7 hPa Calm     77 % 0 mm
00:44 21 °C 16.6 °C 1011.7 hPa Calm     76 % 0 mm
00:49 20.9 °C 16.8 °C 1011.7 hPa Calm     77 % 0 mm
00:54 20.9 °C 16.5 °C 1011.7 hPa Calm     76 % 0 mm
00:59 20.8 °C 16.6 °C 1011.7 hPa Calm     77 % 0 mm
01:04 20.7 °C 16.7 °C 1011.7 hPa Calm     78 % 0 mm
01:09 20.6 °C 16.4 °C 1011.7 hPa Calm     77 % 0 mm
01:14 20.5 °C 16.6 °C 1011.7 hPa Calm     78 % 0 mm
01:19 20.4 °C 16.3 °C 1011.7 hPa Calm     77 % 0 mm
01:25 20.4 °C 16.2 °C 1011.7 hPa Calm     77 % 0 mm
01:29 20.3 °C 16.1 °C 1011.7 hPa Calm     77 % 0 mm
01:34 20.4 °C 16 °C 1011.7 hPa Calm     76 % 0 mm
01:39 20.4 °C 16.1 °C 1011.7 hPa Calm     76 % 0 mm
01:44 20.4 °C 16.1 °C 1011.7 hPa Calm     76 % 0 mm
01:49 20.4 °C 16 °C 1011.7 hPa Calm     76 % 0 mm
01:54 20.3 °C 16.1 °C 1011.7 hPa Calm     77 % 0 mm
01:59 20.1 °C 15.9 °C 1011.7 hPa Calm     77 % 0 mm
02:04 19.9 °C 16 °C 1011.7 hPa Calm     78 % 0 mm
02:09 19.8 °C 15.8 °C 1011.7 hPa Calm     78 % 0 mm
02:14 19.6 °C 15.7 °C 1011.7 hPa Calm     78 % 0 mm
02:19 19.6 °C 15.4 °C 1011.7 hPa Calm     77 % 0 mm
02:24 19.6 °C 15.4 °C 1011.7 hPa Calm     77 % 0 mm
02:29 19.6 °C 15.4 °C 1011.7 hPa Calm     77 % 0 mm
02:34 19.4 °C 15.3 °C 1011.7 hPa Calm     77 % 0 mm
02:39 19.4 °C 15.3 °C 1011.7 hPa Calm     77 % 0 mm
02:44 19.4 °C 15.1 °C 1011.7 hPa Calm     76 % 0 mm
02:49 19.3 °C 15.2 °C 1011.7 hPa Calm     77 % 0 mm
02:54 19.2 °C 15.1 °C 1011.7 hPa Calm     77 % 0 mm
02:59 19.2 °C 15.1 °C 1011.7 hPa Calm     77 % 0 mm
03:04 19.1 °C 15.2 °C 1011.4 hPa Calm     78 % 0 mm
03:09 19.1 °C 15.1 °C 1011.4 hPa Calm     78 % 0 mm
03:14 19.1 °C 14.9 °C 1011.4 hPa Calm     77 % 0 mm
03:19 19.2 °C 15.1 °C 1011.4 hPa Calm     77 % 0 mm
03:24 19.2 °C 14.8 °C 1011.4 hPa Calm     76 % 0 mm
03:29 19.1 °C 15 °C 1011.4 hPa Calm     77 % 0 mm
03:34 18.9 °C 14.8 °C 1011.4 hPa Calm     77 % 0 mm
03:39 18.8 °C 14.8 °C 1011.4 hPa Calm     78 % 0 mm
03:44 18.7 °C 14.8 °C 1011.1 hPa Calm     78 % 0 mm
03:49 18.6 °C 14.7 °C 1011.4 hPa Calm     78 % 0 mm
03:55 18.5 °C 15 °C 1011.4 hPa Calm     80 % 0 mm
03:59 18.4 °C 14.9 °C 1011.4 hPa Calm     80 % 0 mm
04:04 18.4 °C 14.9 °C 1011.4 hPa Calm     80 % 0 mm
04:09 18.4 °C 14.9 °C 1011.4 hPa Calm     80 % 0 mm
04:14 18.3 °C 14.8 °C 1011.4 hPa Calm     80 % 0 mm
04:19 18.1 °C 14.8 °C 1011.4 hPa Calm     81 % 0 mm
04:24 18.1 °C 14.7 °C 1011.4 hPa Calm     81 % 0 mm
04:29 17.9 °C 14.6 °C 1011.4 hPa Calm     81 % 0 mm
04:34 17.9 °C 14.6 °C 1011.4 hPa Calm     81 % 0 mm
04:39 17.9 °C 14.6 °C 1011.4 hPa Calm     81 % 0 mm
04:44 17.9 °C 14.6 °C 1011.4 hPa Calm     81 % 0 mm
04:49 17.9 °C 14.6 °C 1011.4 hPa Calm     81 % 0 mm
04:54 17.9 °C 14.6 °C 1011.4 hPa Calm     81 % 0 mm
04:59 17.8 °C 14.5 °C 1011.4 hPa Calm     81 % 0 mm
05:04 17.7 °C 14.4 °C 1011.4 hPa Calm     81 % 0 mm
05:09 17.6 °C 14.3 °C 1011.4 hPa Calm     81 % 0 mm
05:14 17.6 °C 14.4 °C 1011.4 hPa Calm     82 % 0 mm
05:19 17.5 °C 14.2 °C 1011.7 hPa Calm     81 % 0 mm
05:24 17.4 °C 14.3 °C 1011.7 hPa Calm     82 % 0 mm
05:29 17.4 °C 14.5 °C 1011.7 hPa Calm     83 % 0 mm
05:34 17.4 °C 14.7 °C 1011.7 hPa Calm     84 % 0 mm
05:39 17.4 °C 14.5 °C 1012.1 hPa Calm     83 % 0 mm
05:44 17.4 °C 14.5 °C 1012.1 hPa Calm     83 % 0 mm
05:49 17.4 °C 14.7 °C 1012.1 hPa Calm     84 % 0 mm
05:54 17.4 °C 14.7 °C 1012.1 hPa Calm     84 % 0 mm
05:59 17.3 °C 14.4 °C 1012.1 hPa Calm     83 % 0 mm
06:04 17.3 °C 14.4 °C 1012.1 hPa Calm     83 % 0 mm
06:09 17.3 °C 14.2 °C 1012.1 hPa Calm     82 % 0 mm
06:14 17.4 °C 14.3 °C 1012.4 hPa Calm     82 % 0 mm
06:19 17.6 °C 14.3 °C 1012.4 hPa Calm     81 % 0 mm
06:24 17.9 °C 14.6 °C 1012.4 hPa ESE 1.9 km/h   81 % 0 mm
06:29 18.1 °C 14.6 °C 1012.4 hPa Calm     80 % 0 mm
06:34 18.3 °C 14.6 °C 1012.4 hPa Calm     79 % 0 mm
06:39 18.7 °C 14.9 °C 1012.4 hPa Calm     79 % 0 mm
06:44 19.4 °C 15.5 °C 1012.4 hPa Calm     78 % 0 mm
06:49 20.1 °C 15.6 °C 1012.4 hPa Calm     75 % 0 mm
06:54 20.7 °C 15.9 °C 1012.4 hPa Calm     74 % 0 mm
06:59 21.1 °C 16.1 °C 1012.4 hPa Calm     73 % 0 mm
07:04 21.3 °C 16 °C 1012.4 hPa ESE 1.9 km/h   72 % 0 mm
07:09 21.7 °C 16.2 °C 1012.4 hPa Calm   0.2 km/h 71 % 0 mm
07:14 21.9 °C 15.9 °C 1012.4 hPa SE 1.9 km/h   69 % 0 mm
07:19 22.1 °C 15.9 °C 1012.4 hPa ESE 1.9 km/h 0.2 km/h 68 % 0 mm
07:24 22.3 °C 16.1 °C 1012.4 hPa Calm     68 % 0 mm
07:29 22.5 °C 15.8 °C 1012.4 hPa SE 1.9 km/h   66 % 0 mm
07:34 22.7 °C 15.7 °C 1012.4 hPa East 3.2 km/h 0.6 km/h 65 % 0 mm
07:39 23.1 °C 16.1 °C 1012.4 hPa East 3.2 km/h 1 km/h 65 % 0 mm
07:44 23.3 °C 16.1 °C 1012.4 hPa SE 1.9 km/h   64 % 0 mm
07:49 23.8 °C 16.3 °C 1012.4 hPa ESE 1.9 km/h 0.3 km/h 63 % 0 mm
07:54 24.1 °C 16.3 °C 1012.4 hPa SSE 3.7 km/h 0.5 km/h 62 % 0 mm
07:59 24.3 °C 16.3 °C 1012.4 hPa East 5.6 km/h 1.8 km/h 61 % 0 mm
08:04 24.7 °C 16.7 °C 1012.4 hPa ENE 1.9 km/h 0.6 km/h 61 % 0 mm
08:09 25.2 °C 16.9 °C 1012.4 hPa East 1.9 km/h 1.3 km/h 60 % 0 mm
08:14 25.3 °C 16.7 °C 1012.4 hPa East 3.2 km/h 1.1 km/h 59 % 0 mm
08:19 25.6 °C 16.7 °C 1012.4 hPa SE 3.7 km/h 2.6 km/h 58 % 0 mm
08:24 25.8 °C 16.9 °C 1012.4 hPa SSW 1.9 km/h 2.1 km/h 58 % 0 mm
08:29 26.1 °C 17.2 °C 1012.4 hPa Calm     58 % 0 mm
08:34 26.5 °C 17.6 °C 1012.8 hPa Calm     58 % 0 mm
08:39 26.5 °C 17.3 °C 1012.8 hPa East 5.6 km/h 1.9 km/h 57 % 0 mm
08:44 26.5 °C 17 °C 1012.8 hPa SE 5.6 km/h 2.6 km/h 56 % 0 mm
08:49 26.7 °C 17.8 °C 1012.8 hPa SE 3.7 km/h 1.1 km/h 58 % 0 mm
08:54 26.8 °C 17.8 °C 1012.8 hPa East 1.9 km/h 0.6 km/h 58 % 0 mm
08:59 27 °C 17.8 °C 1012.8 hPa SE 3.7 km/h 1.4 km/h 57 % 0 mm
09:04 27.2 °C 17.9 °C 1012.8 hPa SE 3.7 km/h 0.5 km/h 57 % 0 mm
09:09 27.3 °C 18.1 °C 1012.8 hPa SSE 1.9 km/h   57 % 0 mm
09:14 27.6 °C 18.3 °C 1012.8 hPa SE 1.6 km/h 0.5 km/h 57 % 0 mm
09:19 27.6 °C 17.8 °C 1012.8 hPa SE 3.2 km/h 2.9 km/h 55 % 0 mm
09:24 27.7 °C 17.8 °C 1012.8 hPa South 4.8 km/h 3.2 km/h 55 % 0 mm
09:29 27.8 °C 17.9 °C 1012.8 hPa SE 1.9 km/h   55 % 0 mm
09:34 27.9 °C 18.1 °C 1012.8 hPa SSW 5.6 km/h 2.6 km/h 55 % 0 mm
09:39 28.1 °C 18.4 °C 1012.8 hPa SSW 3.7 km/h 1.8 km/h 56 % 0 mm
09:44 28.3 °C 18.1 °C 1012.8 hPa South 1.9 km/h 1.4 km/h 54 % 0 mm
09:49 28.4 °C 18.2 °C 1012.8 hPa SSE 1.9 km/h 0.3 km/h 54 % 0 mm
09:55 28.7 °C 18.2 °C 1012.8 hPa SE 5.6 km/h 2.6 km/h 53 % 0 mm
09:59 28.8 °C 18.8 °C 1012.8 hPa NW 5.6 km/h 0.8 km/h 55 % 0 mm
10:04 29 °C 18.2 °C 1012.8 hPa SSE 7.4 km/h 0.8 km/h 52 % 0 mm
10:09 29.1 °C 18.2 °C 1012.8 hPa SE 3.7 km/h 0.6 km/h 52 % 0 mm
10:15 29.2 °C 18.1 °C 1012.4 hPa SE 3.7 km/h 1.3 km/h 51 % 0 mm
10:19 29.4 °C 17.9 °C 1012.4 hPa SE 6.4 km/h 1.3 km/h 50 % 0 mm
10:24 29.6 °C 17.7 °C 1012.4 hPa West 3.2 km/h 0.8 km/h 49 % 0 mm
10:29 29.7 °C 17.8 °C 1012.4 hPa NNE 6.4 km/h 2.4 km/h 49 % 0 mm
10:34 29.7 °C 17.8 °C 1012.4 hPa South 1.9 km/h 1.4 km/h 49 % 0 mm
10:39 29.7 °C 17.6 °C 1012.4 hPa South 5.6 km/h 2.7 km/h 48 % 0 mm
10:44 29.8 °C 17.6 °C 1012.4 hPa South 5.6 km/h 2.9 km/h 48 % 0 mm
10:49 29.7 °C 17.9 °C 1012.4 hPa SE 1.9 km/h 2.9 km/h 49 % 0 mm
10:54 30.1 °C 18.8 °C 1012.4 hPa SSE 4.8 km/h 2.1 km/h 51 % 0 mm
10:59 30.3 °C 18.1 °C 1012.4 hPa SSE 1.9 km/h 0.6 km/h 48 % 0 mm
11:05 30.4 °C 17.5 °C 1012.4 hPa SE 5.6 km/h 2.1 km/h 46 % 0 mm
11:09 30.7 °C 17.8 °C 1012.4 hPa East 5.6 km/h 1.1 km/h 46 % 0 mm
11:14 30.7 °C 17.7 °C 1012.4 hPa SE 5.6 km/h 0.2 km/h 46 % 0 mm
11:19 31 °C 18.7 °C 1012.4 hPa SE 3.7 km/h 0.2 km/h 48 % 0 mm
11:24 31.4 °C 18.8 °C 1012.1 hPa NW 1.9 km/h 0.6 km/h 47 % 0 mm
11:29 31.7 °C 17.9 °C 1012.1 hPa SSE 3.7 km/h 1.3 km/h 44 % 0 mm
11:34 32.2 °C 18.4 °C 1012.1 hPa SW 3.7 km/h 0.3 km/h 44 % 0 mm
11:40 32.3 °C 18.8 °C 1012.1 hPa South 3.2 km/h 0.3 km/h 45 % 0 mm
11:44 32.1 °C 18.3 °C 1012.1 hPa West 1.9 km/h 0.2 km/h 44 % 0 mm
11:49 32.3 °C 18.5 °C 1012.1 hPa West 1.9 km/h 0.2 km/h 44 % 0 mm
11:54 32.9 °C 20.1 °C 1012.1 hPa SE 1.9 km/h   47 % 0 mm
11:59 33 °C 17.6 °C 1012.1 hPa WNW 3.2 km/h 2.4 km/h 40 % 0 mm
12:04 32.7 °C 17.7 °C 1011.7 hPa ESE 5.6 km/h 1.9 km/h 41 % 0 mm
12:09 32.7 °C 18.4 °C 1011.7 hPa SSW 4.8 km/h 1.6 km/h 43 % 0 mm
12:14 32.9 °C 17.5 °C 1011.7 hPa ESE 3.7 km/h 1.4 km/h 40 % 0 mm
12:19 33.2 °C 18.6 °C 1011.7 hPa South 1.9 km/h 0.3 km/h 42 % 0 mm
Park Place, Exeter, Tulare County, California, USA
Compliments of Weather Underground - 2 mb